| time (UTC) | temp F | wind direction | speed knots | gust knots | rain 1hr in | rain 24hr in | rain mn in | humidity % | barometer mb |
| 20260905145556 | 75 | 138 | 0.0 | 0.0 | 0.00 | 0.00 | 0.00 | 80 | 1017.4 |
| 20260905142555 | 74 | 138 | 0.0 | 0.0 | 0.00 | 0.00 | 0.00 | 82 | 1017.4 |
| 20260905135553 | 75 | 139 | 1.7 | 1.7 | 0.00 | 0.00 | 0.00 | 81 | 1016.7 |
| 20260905132548 | 74 | 38 | 0.0 | 0.0 | 0.00 | 0.00 | 0.00 | 84 | 1016.7 |
| 20260905125545 | 74 | 36 | 0.0 | 0.0 | 0.00 | 0.00 | 0.00 | 86 | 1017.0 |
| 20260905122542 | 74 | 222 | 0.0 | 0.0 | 0.00 | 0.00 | 0.00 | 83 | 1016.3 |
| 20260905115537 | 70 | 222 | 0.0 | 0.0 | 0.00 | 0.00 | 0.00 | 95 | 1016.3 |
| 20260905112534 | 69 | 222 | 0.0 | 0.0 | 0.00 | 0.00 | 0.00 | 96 | 1016.3 |
| 20260905105530 | 69 | 222 | 0.0 | 0.0 | 0.00 | 0.00 | 0.00 | 97 | 1016.3 |
| 20260905102529 | 68 | 222 | 0.0 | 0.0 | 0.00 | 0.00 | 0.00 | 97 | 1016.0 |
| 20260905095525 | 68 | 222 | 0.0 | 0.0 | 0.00 | 0.00 | 0.00 | 97 | 1015.6 |
| 20260905092524 | 68 | 222 | 0.0 | 0.0 | 0.00 | 0.00 | 0.00 | 97 | 1015.6 |
| 20260905085524 | 67 | 223 | 0.0 | 0.0 | 0.00 | 0.00 | 0.00 | 97 | 1015.2 |
| 20260905082519 | 68 | 224 | 0.0 | 0.0 | 0.00 | 0.00 | 0.00 | 97 | 1016.0 |
| 20260905075514 | 67 | 224 | 0.0 | 0.0 | 0.00 | 0.00 | 0.00 | 97 | 1016.0 |
| 20260905072513 | 68 | 224 | 0.0 | 0.0 | 0.00 | 0.00 | 0.00 | 97 | 1016.0 |
| 20260905065511 | 67 | 228 | 0.0 | 0.0 | 0.00 | 0.00 | 0.00 | 97 | 1016.3 |
| 20260905062509 | 68 | 226 | 0.0 | 0.0 | 0.00 | 0.00 | 0.00 | 97 | 1016.7 |
| 20260905055505 | 69 | 221 | 0.0 | 0.0 | 0.00 | 0.00 | 0.00 | 97 | 1017.0 |
| 20260905052504 | 68 | 221 | 0.0 | 0.0 | 0.00 | 0.00 | 0.00 | 97 | 1017.4 |
| 20260905045500 | 69 | 221 | 0.0 | 0.0 | 0.00 | 0.00 | 0.00 | 97 | 1017.4 |
| 20260905042456 | 69 | 221 | 0.0 | 0.0 | 0.00 | 0.00 | 0.00 | 97 | 1017.4 |
| 20260905035453 | 70 | 221 | 0.0 | 0.0 | 0.00 | 0.00 | 0.00 | 97 | 1017.4 |
| 20260905032453 | 70 | 221 | 0.0 | 0.0 | 0.00 | 0.00 | 0.00 | 96 | 1017.4 |
| 20260905025452 | 70 | 221 | 0.0 | 0.0 | 0.00 | 0.00 | 0.00 | 96 | 1017.4 |
| 20260905022451 | 70 | 221 | 0.0 | 0.0 | 0.00 | 0.00 | 0.00 | 96 | 1017.0 |
| 20260905015445 | 71 | 221 | 0.0 | 0.0 | 0.00 | 0.00 | 0.00 | 95 | 1016.7 |
| 20260905012445 | 71 | 221 | 0.0 | 0.0 | 0.00 | 0.00 | 0.00 | 94 | 1016.7 |
| 20260905005443 | 72 | 236 | 0.9 | 0.9 | 0.00 | 0.00 | 0.00 | 94 | 1017.0 |
| 20260905002443 | 74 | 239 | 1.7 | 1.7 | 0.00 | 0.00 | 0.00 | 91 | 1016.3 |
| 20260904235443 | 75 | 222 | 1.7 | 1.7 | 0.00 | 0.00 | 0.00 | 90 | 1016.3 |
| 20260904232444 | 78 | 222 | 0.0 | 0.0 | 0.00 | 0.00 | 0.00 | 85 | 1016.3 |
| 20260904225440 | 79 | 222 | 0.0 | 0.0 | 0.00 | 0.00 | 0.00 | 84 | 1016.3 |
| 20260904222438 | 80 | 222 | 0.9 | 0.9 | 0.00 | 0.00 | 0.00 | 77 | 1017.0 |
| 20260904215435 | 81 | 251 | 0.0 | 0.0 | 0.00 | 0.00 | 0.00 | 69 | 1017.0 |
| 20260904212433 | 82 | 277 | 1.7 | 1.7 | 0.00 | 0.00 | 0.00 | 64 | 1016.7 |
| 20260904205432 | 82 | 288 | 2.6 | 2.6 | 0.00 | 0.00 | 0.00 | 63 | 1017.0 |
| 20260904202431 | 85 | 18 | 0.0 | 0.0 | 0.00 | 0.00 | 0.00 | 59 | 1017.0 |
| 20260904195427 | 85 | 32 | 0.0 | 0.0 | 0.00 | 0.00 | 0.00 | 64 | 1017.7 |
| 20260904192425 | 83 | 115 | 0.0 | 0.0 | 0.00 | 0.00 | 0.00 | 69 | 1017.4 |
| 20260904185424 | 82 | 300 | 0.0 | 0.0 | 0.00 | 0.00 | 0.00 | 67 | 1017.7 |
| 20260904182424 | 84 | 303 | 0.0 | 0.0 | 0.00 | 0.00 | 0.00 | 63 | 1017.7 |
| 20260904175419 | 85 | 65 | 1.7 | 1.7 | 0.00 | 0.00 | 0.00 | 58 | 1018.4 |
| 20260904172420 | 85 | 47 | 2.6 | 3.5 | 0.00 | 0.00 | 0.00 | 65 | 1018.4 |
| 20260904165418 | 82 | 276 | 1.7 | 1.7 | 0.00 | 0.00 | 0.00 | 69 | 1018.7 |
| 20260904162415 | 80 | 247 | 0.9 | 0.9 | 0.00 | 0.00 | 0.00 | 72 | 1019.0 |
| 20260904155415 | 80 | 292 | 1.7 | 1.7 | 0.00 | 0.00 | 0.00 | 72 | 1019.0 |
| 20260904152413 | 78 | 38 | 0.9 | 0.9 | 0.00 | 0.00 | 0.00 | 73 | 1019.5 |